TimeEDT,TemperatureF,Dew PointF,Humidity,Sea Level PressureIn,VisibilityMPH,Wind Direction,Wind SpeedMPH,Gust SpeedMPH,PrecipitationIn,Events,Conditions,WindDirDegrees,DateUTC
12:20 AM,64.4,62.6,94,30.14,4.0,Calm,Calm,-,0.00,,Overcast,0,2013-06-23 04:20:00
12:54 AM,64.0,62.1,93,30.13,4.0,Calm,Calm,-,0.00,,Overcast,0,2013-06-23 04:54:00
1:46 AM,62.6,62.6,100,30.12,2.5,Calm,Calm,-,N/A,,Overcast,0,2013-06-23 05:46:00
1:54 AM,63.0,62.1,97,30.12,3.0,Calm,Calm,-,N/A,,Overcast,0,2013-06-23 05:54:00
2:19 AM,62.6,62.6,100,30.11,2.5,Calm,Calm,-,N/A,,Mostly Cloudy,0,2013-06-23 06:19:00
2:28 AM,62.6,62.6,100,30.11,1.2,Calm,Calm,-,N/A,,Overcast,0,2013-06-23 06:28:00
2:50 AM,62.6,62.6,100,30.11,1.0,Calm,Calm,-,0.00,Rain,Light Rain,0,2013-06-23 06:50:00
2:54 AM,63.0,62.1,97,30.11,1.8,Calm,Calm,-,0.00,,Overcast,0,2013-06-23 06:54:00
3:00 AM,62.6,62.6,100,30.11,2.5,Calm,Calm,-,N/A,,Overcast,0,2013-06-23 07:00:00
3:39 AM,62.6,62.6,100,30.09,1.2,Calm,Calm,-,0.00,,Overcast,0,2013-06-23 07:39:00
3:51 AM,62.6,60.8,94,30.09,2.0,Calm,Calm,-,0.00,,Mostly Cloudy,0,2013-06-23 07:51:00
3:54 AM,62.1,61.0,96,30.09,1.8,Calm,Calm,-,0.00,,Mostly Cloudy,0,2013-06-23 07:54:00
4:13 AM,62.6,60.8,94,30.09,2.5,Calm,Calm,-,N/A,,Overcast,0,2013-06-23 08:13:00
4:31 AM,62.6,62.6,100,30.08,3.0,SSE,3.5,-,N/A,,Overcast,160,2013-06-23 08:31:00
4:54 AM,63.0,62.1,97,30.09,4.0,Calm,Calm,-,N/A,,Overcast,0,2013-06-23 08:54:00
5:16 AM,62.6,62.6,100,30.09,3.0,Calm,Calm,-,N/A,,Mostly Cloudy,0,2013-06-23 09:16:00
5:23 AM,62.6,62.6,100,30.09,2.0,Calm,Calm,-,N/A,,Mostly Cloudy,0,2013-06-23 09:23:00
5:32 AM,62.6,62.6,100,30.09,1.5,South,3.5,-,N/A,,Scattered Clouds,190,2013-06-23 09:32:00
5:54 AM,63.0,62.1,97,30.10,2.5,Calm,Calm,-,N/A,,Mostly Cloudy,0,2013-06-23 09:54:00
6:54 AM,64.0,63.0,96,30.12,2.5,Calm,Calm,-,N/A,,Overcast,0,2013-06-23 10:54:00
7:05 AM,64.4,62.6,94,30.11,2.5,Calm,Calm,-,N/A,,Scattered Clouds,0,2013-06-23 11:05:00
7:17 AM,66.2,64.4,94,30.11,3.0,Calm,Calm,-,N/A,,Mostly Cloudy,0,2013-06-23 11:17:00
7:24 AM,66.2,64.4,94,30.11,4.0,Calm,Calm,-,N/A,,Partly Cloudy,0,2013-06-23 11:24:00
7:54 AM,66.9,64.9,93,30.11,5.0,Calm,Calm,-,N/A,,Mostly Cloudy,0,2013-06-23 11:54:00
8:40 AM,71.6,66.2,83,30.11,7.0,Calm,Calm,-,N/A,,Scattered Clouds,0,2013-06-23 12:40:00
8:54 AM,71.1,66.0,84,30.10,7.0,North,3.5,-,N/A,,Scattered Clouds,10,2013-06-23 12:54:00
9:54 AM,75.0,68.0,79,30.08,10.0,Calm,Calm,-,N/A,,Clear,0,2013-06-23 13:54:00
10:54 AM,79.0,68.0,69,30.06,10.0,SSW,9.2,-,N/A,,Partly Cloudy,210,2013-06-23 14:54:00
11:54 AM,80.1,68.0,67,30.06,10.0,South,4.6,-,N/A,,Mostly Cloudy,180,2013-06-23 15:54:00
12:54 PM,79.0,69.1,72,30.04,10.0,North,4.6,-,N/A,,Overcast,360,2013-06-23 16:54:00
1:54 PM,80.1,70.0,71,30.02,9.0,NNE,4.6,-,N/A,,Mostly Cloudy,20,2013-06-23 17:54:00
2:54 PM,77.0,69.1,76,30.02,7.0,North,6.9,-,N/A,Thunderstorm,Overcast,10,2013-06-23 18:54:00
3:54 PM,72.0,66.0,81,30.04,7.0,SSW,10.4,19.6,0.02,Thunderstorm,Thunderstorm,200,2013-06-23 19:54:00
4:03 PM,69.8,66.2,88,30.05,1.8,SSW,13.8,21.9,0.06,Rain-Thunderstorm,Thunderstorms and Rain,210,2013-06-23 20:03:00
4:19 PM,69.8,66.2,88,30.03,3.0,South,4.6,-,0.11,Rain-Thunderstorm,Light Rain,180,2013-06-23 20:19:00
4:35 PM,69.8,68.0,94,30.01,6.0,SSW,5.8,-,0.12,Rain,Light Rain,200,2013-06-23 20:35:00
4:54 PM,73.0,69.1,87,29.99,10.0,Calm,Calm,-,0.12,,Partly Cloudy,0,2013-06-23 20:54:00
5:54 PM,75.0,69.1,82,29.98,10.0,Calm,Calm,-,N/A,,Mostly Cloudy,0,2013-06-23 21:54:00
6:54 PM,75.0,70.0,84,29.99,6.0,SE,3.5,-,0.01,Rain,Light Rain,130,2013-06-23 22:54:00
7:21 PM,73.4,71.6,94,30.00,10.0,Calm,Calm,-,0.01,Thunderstorm,Mostly Cloudy,0,2013-06-23 23:21:00
7:54 PM,73.0,69.1,87,29.99,10.0,Calm,Calm,-,0.01,Thunderstorm,Mostly Cloudy,0,2013-06-23 23:54:00
8:14 PM,71.6,68.0,88,30.00,10.0,NNE,3.5,-,N/A,,Mostly Cloudy,20,2013-06-24 00:14:00
8:54 PM,70.0,68.0,93,30.00,8.0,Calm,Calm,-,N/A,,Mostly Cloudy,0,2013-06-24 00:54:00
9:54 PM,69.1,68.0,96,30.01,7.0,Calm,Calm,-,N/A,,Mostly Cloudy,0,2013-06-24 01:54:00
10:54 PM,68.0,66.9,96,30.01,5.0,Calm,Calm,-,N/A,,Mostly Cloudy,0,2013-06-24 02:54:00
11:18 PM,66.2,66.2,100,30.02,1.8,Calm,Calm,-,N/A,,Overcast,0,2013-06-24 03:18:00
11:27 PM,68.0,66.2,94,30.01,3.0,Calm,Calm,-,N/A,,Mostly Cloudy,0,2013-06-24 03:27:00
11:45 PM,66.2,66.2,100,30.01,2.0,Calm,Calm,-,N/A,,Mostly Cloudy,0,2013-06-24 03:45:00
11:47 PM,66.2,66.2,100,30.01,1.0,Calm,Calm,-,N/A,,Mostly Cloudy,0,2013-06-24 03:47:00
11:51 PM,66.2,66.2,100,30.00,0.8,Calm,Calm,-,N/A,,Mostly Cloudy,0,2013-06-24 03:51:00
11:54 PM,66.9,66.0,97,30.00,0.5,Calm,Calm,-,N/A,Fog,Fog,0,2013-06-24 03:54:00